Flag for U.S.A. Weather past 2 weeks in Elizabeth, New Jersey, U.S.A.

Now
68 °F

Scattered clouds.


Feels Like: 68 °F
Forecast: 65 / 79 °F
Wind: 9 mph from Northwest

Location: Newark International Airport

Current Time: Jul 29, 2014 at 9:35:49 AM

Latest Report: Jul 29, 2014 at 8:51 AM


Visibility: 10 mi

Pressure: 29.86 "Hg

Humidity: 63%

Dew point: 55 °F

Location of ElizabethLocation

Historic Weather in Elizabeth — Graph

°F

Elizabeth temperature yesterday

Maximum temperature yesterday: 84 °F (at 1:51 PM)
Minimum temperature yesterday: 68 °F (at 11:51 PM)
Average temperature yesterday: 76 °F

Past Weeks' High & Low Weather Summary

 TemperatureHumidityPressure
High92 °F (Jul 23, 5:51 PM)100% (Jul 15, 9:02 PM)30.24 "Hg (Jul 15, 9:02 PM)
Low64 °F (Jul 29, 5:51 AM)32% (Jul 18, 5:51 PM)29.52 "Hg (Jul 28, 1:51 PM)
Average75 °F66%29.94 "Hg
* Reported Jul 14 7:51 AM — Jul 29 7:51 AM, Elizabeth, Weather by CustomWeather, © 2014

Note: Actual official high and low records may vary slightly from our data, if they occured in-between our weather recording intervals... More about our weather records

Advertising

Elizabeth weather history for previous 24 hours

 ConditionsComfort  
Time TempWeatherWind HumidityBarometerVisibility
7:51 AM
Jul 29
66 °FScattered clouds.10 mph68%29.84 "Hg10 mi
6:51 AM64 °FScattered clouds.10 mph70%29.83 "Hg10 mi
5:51 AM64 °FPassing clouds.7 mph68%29.80 "Hg10 mi
4:51 AM65 °FPassing clouds.9 mph66%29.78 "Hg10 mi
3:51 AM65 °FPassing clouds.10 mph68%29.77 "Hg10 mi
2:51 AM66 °FPassing clouds.7 mph68%29.76 "Hg10 mi
1:51 AM67 °FPartly cloudy.7 mph71%29.74 "Hg10 mi
12:51 AM67 °FPassing clouds.10 mph71%29.71 "Hg10 mi
11:51 PM
Jul 28
68 °FPassing clouds.15 mph70%29.70 "Hg10 mi
10:51 PM69 °FPassing clouds.13 mph68%29.70 "Hg10 mi
9:51 PM71 °FPassing clouds.10 mph68%29.67 "Hg10 mi
8:51 PM73 °FScattered clouds.15 mph62%29.63 "Hg10 mi
7:51 PM75 °FBroken clouds.18 mph55%29.61 "Hg10 mi
6:51 PM81 °FPartly sunny.16 mph45%29.58 "Hg10 mi
5:51 PM83 °FBroken clouds.20 mph43%29.55 "Hg10 mi
4:51 PM83 °FScattered clouds.23 mph44%29.54 "Hg10 mi
3:51 PM83 °FBroken clouds.21 mph46%29.53 "Hg10 mi
2:51 PM83 °FLight rain. Broken clouds.21 mph48%29.53 "Hg10 mi
1:51 PM84 °FScattered clouds.15 mph48%29.52 "Hg10 mi
12:51 PM82 °FPartly sunny.20 mph53%29.53 "Hg10 mi
11:51 AM80 °FScattered clouds.16 mph60%29.54 "Hg10 mi
10:51 AM75 °FPartly sunny.12 mph76%29.56 "Hg10 mi
9:51 AM73 °FMostly cloudy.9 mph81%29.55 "Hg10 mi
Weather by CustomWeather, © 2014

See weather overviewHow to use our weather pages